Weather History for KNQX - November, 2013

Change the Weather History Date:

Saturday, November 30, 2013

  Actual Average Record
Temperature  
Mean Temperature 72 °F -  
Max Temperature 77 °F 78 °F 84 °F (1978)
Min Temperature 68 °F 69 °F 49 °F (1959)
Cooling Degree Days 8    
Growing Degree Days 22 (Base 50)    
Moisture  
Dew Point 66 °F    
Average Humidity 81    
Maximum Humidity 90    
Minimum Humidity 71    
Precipitation  
Precipitation 0.00 in - - ()
Sea Level Pressure  
Sea Level Pressure 30.14 in    
Wind  
Wind Speed 13 mph (NNE)    
Max Wind Speed 16 mph    
Max Gust Speed 24 mph    
Visibility 10 miles    
Events      
Averages and records for this station are not official NWS values.
T = Trace of Precipitation, MM = Missing Value Source: NWS Daily Summary

Daily Weather History Graph

Daily Weather History Graph

Search for Another Location

Airport or City:

Trip Planner

Search our weather history database for the weather conditions in past years. The results will help you decide how hot, cold, wet, or windy it might be!

Date:

Astronomy

Nov. 30, 2013 Rise Set
Actual Time 6:53 AM EST 5:37 PM EST
Civil Twilight 6:28 AM EST 6:02 PM EST
Nautical Twilight 6:00 AM EST 6:30 PM EST
Astronomical Twilight 5:33 AM EST 6:57 PM EST
Moon 4:16 AM EST (11/30) 3:49 PM EST (11/30)
Length of Visible Light 11h 33m
Length of Day
10h 44m
Waning Crescent, 7% of the Moon is Illuminated
Nov 30
Waning Crescent
Dec 2
New
Dec 9
First Quarter
Dec 17
Full
Dec 25
Last Quarter

Hourly Weather History & Observations

Time (EST) Temp. Dew Point Humidity Pressure Visibility Wind Dir Wind Speed Gust Speed Precip Events Conditions
12:53 AM - - N/A% 30.18 in 10.0 mi NNE 12.7 mph - N/A   Mostly Cloudy
1:53 AM - - N/A% 30.16 in 10.0 mi NNE 12.7 mph - N/A   Partly Cloudy
2:53 AM - - N/A% 30.15 in 10.0 mi NNE 10.4 mph - N/A   Clear
3:53 AM - - N/A% 30.15 in 10.0 mi NNE 13.8 mph - N/A   Partly Cloudy
4:53 AM - - N/A% 30.14 in 10.0 mi NNE 16.1 mph - N/A   Clear
5:53 AM - - N/A% 30.14 in 10.0 mi NNE 12.7 mph 20.7 mph N/A   Clear
5:55 AM 68.0 °F 64.4 °F 88% 30.14 in 10.0 mi NNE 13.8 mph 20.7 mph N/A   Clear
6:53 AM 68.0 °F 64.9 °F 90% 30.16 in 10.0 mi NNE 13.8 mph - N/A   Scattered Clouds
7:53 AM 68.0 °F 64.9 °F 90% 30.17 in 10.0 mi NNE 15.0 mph 20.7 mph N/A   Partly Cloudy
8:53 AM 69.8 °F 64.4 °F 83% 30.19 in 10.0 mi NNE 16.1 mph 24.2 mph N/A   Partly Cloudy
9:53 AM 71.6 °F 64.9 °F 79% 30.20 in 10.0 mi NNE 12.7 mph - N/A   Partly Cloudy
10:53 AM 75.2 °F 66.0 °F 73% 30.18 in 10.0 mi NNE 12.7 mph 20.7 mph N/A   Clear
11:53 AM 75.2 °F 66.0 °F 73% 30.16 in 10.0 mi NNE 11.5 mph 19.6 mph N/A   Clear
12:53 PM 75.2 °F 66.9 °F 75% 30.14 in 10.0 mi North 12.7 mph - N/A   Clear
1:53 PM 77.0 °F 66.9 °F 71% 30.12 in 10.0 mi North 12.7 mph - N/A   Clear
2:53 PM 75.2 °F 66.9 °F 75% 30.11 in 10.0 mi NNE 15.0 mph - N/A   Clear
3:53 PM 75.2 °F 66.9 °F 75% 30.10 in 10.0 mi North 11.5 mph - N/A   Clear
4:53 PM 73.4 °F 68.0 °F 83% 30.09 in 10.0 mi North 12.7 mph - N/A   Clear
5:53 PM 73.4 °F 68.0 °F 83% 30.09 in 10.0 mi North 11.5 mph - N/A   Mostly Cloudy
6:53 PM 73.4 °F 69.1 °F 86% 30.11 in 10.0 mi NNE 13.8 mph - N/A   Mostly Cloudy
7:53 PM 73.4 °F 66.9 °F 80% 30.12 in 10.0 mi NNE 13.8 mph 18.4 mph N/A   Clear
8:53 PM 73.4 °F 68.0 °F 83% 30.13 in 10.0 mi NE 11.5 mph - N/A   Overcast
9:53 PM - - N/A% 30.12 in 10.0 mi NE 11.5 mph 17.3 mph N/A   Partly Cloudy
10:00 PM 71.6 °F 66.2 °F 83% 30.12 in 10.0 mi NE 11.5 mph 17.3 mph N/A   Partly Cloudy
10:53 PM - - N/A% 30.12 in 10.0 mi NE 9.2 mph - N/A   Mostly Cloudy
11:53 PM - - N/A% 30.11 in 10.0 mi NNE 9.2 mph - N/A   Mostly Cloudy